Home   Weather   Shawinigan   Past weeks
Flag for Canada

Past Weather in Shawinigan, Quebec, Canada — Yesterday and Last 2 Weeks

Now
72 °F

Mild.


Feels Like: 77 °F
Forecast: 76 / 55 °F
Wind: 3 mph from Southeast

Location: Shawinigan CS

Current Time: Jul 18, 2019 at 1:34:55 pm

Latest Report: Jul 18, 2019 at 12:00 pm


Visibility: N/A

Pressure: 30.01 "Hg

Humidity: 44%

Dew Point: 49 °F

Location of ShawiniganLocation

Past Weather in Shawinigan — Graph

°F

Shawinigan Temperature Yesterday

Maximum temperature yesterday: 80 °F (at 12:00 pm)
Minimum temperature yesterday: 61 °F (at 11:00 pm)
Average temperature yesterday: 73 °F

High & Low Weather Summary for the Past Weeks

 TemperatureHumidityPressure
High90 °F (Jul 4, 5:00 pm)100% (Jul 16, 6:00 am)30.07 "Hg (Jul 16, 6:00 am)
Low53 °F (Jul 8, 5:00 am)27% (Jul 7, 7:00 pm)29.61 "Hg (Jul 12, 6:00 am)
Average70 °F67%29.89 "Hg
* Reported Jul 3 12:00 pm — Jul 18 12:00 pm, Shawinigan. Weather by CustomWeather, © 2019

Note: Actual official high and low records may vary slightly from our data, if they occured in-between our weather recording intervals... More about our weather records

Advertising

Shawinigan Weather History for the Previous 24 Hours

Scroll right to see more
 ConditionsComfort  
Time TempWeatherWind HumidityBarometerVisibility
12:00 pm
Thu, Jul 18
72 °FMild.3 mph44%30.01 "HgN/A
11:00 am71 °FMild.5 mph44%30.04 "HgN/A
10:00 am68 °FMild.5 mph56%30.05 "HgN/A
9:00 am65 °FMild.5 mph62%30.02 "HgN/A
8:00 am63 °FMild.2 mph72%30.02 "HgN/A
7:00 am57 °FCool.2 mph78%29.98 "HgN/A
6:00 am54 °FCool.2 mph85%29.93 "HgN/A
5:00 am54 °FCool.3 mph82%29.92 "HgN/A
4:00 am55 °FCool.2 mph81%29.94 "HgN/A
3:00 am58 °FCool.2 mph72%29.96 "HgN/A
2:00 am61 °FCool.5 mph64%29.99 "HgN/A
1:00 am61 °FCool.5 mph67%30.00 "HgN/A
12:00 am62 °FCool.6 mph67%29.98 "HgN/A
11:00 pm
Wed, Jul 17
61 °FCool.1 mph71%29.90 "HgN/A
10:00 pm63 °FMild.3 mph67%29.89 "HgN/A
9:00 pm68 °FMild.3 mph52%29.89 "HgN/A
8:00 pm73 °FMild.5 mph42%29.89 "HgN/A
7:00 pm75 °FMild.7 mph39%29.87 "HgN/A
6:00 pm76 °FMild.10 mph38%29.85 "HgN/A
5:00 pm77 °FWarm.9 mph42%29.83 "HgN/A
4:00 pm76 °FMild.12 mph46%29.84 "HgN/A
3:00 pm77 °FWarm.9 mph43%29.83 "HgN/A
2:00 pm80 °FWarm.10 mph50%29.83 "HgN/A
1:00 pm80 °FWarm.9 mph57%29.82 "HgN/A
Weather by CustomWeather, © 2019

See weather overview